DLH01Y EDDF-LFKB

Flight info

Callsign DLH01Y
Flight time 1h 25m
Altitude 37000
Route ANEKI2L ANEKI Y163 NATOR DCT TRA DCT RIPUS DCT GERSA DCT SOSON DCT ODINA DCT SRN DCT VOG DCT ITCAP DCT OLETI M858 LIGUR
Aircraft A320/M-SDE2E3FGIJ1LORWXYZ/HB1

Departure

Time 2026-05-04 19:30
Airport Frankfurt Main Airport (EDDF)

Arrival

Time 2026-05-04 20:55
Airport Bastia-Poretta International airport (LFKB)
Time Latitude Longitude Altitude Speed Heading
2026-05-04 19:10 50.04403 8.56222 356 ft 0 kts 159°
2026-05-04 19:18 50.04404 8.56221 356 ft 2 kts 159°
2026-05-04 19:18 50.04428 8.56208 360 ft 4 kts 165°
2026-05-04 19:18 50.04454 8.56201 358 ft 4 kts 184°
2026-05-04 19:19 50.04475 8.56212 363 ft 4 kts 244°
2026-05-04 19:19 50.04471 8.56195 357 ft 4 kts 250°
2026-05-04 19:19 50.04462 8.56156 356 ft 4 kts 250°
2026-05-04 19:19 50.04454 8.56120 363 ft 1 kts 249°
2026-05-04 19:20 50.04453 8.56118 363 ft 0 kts 249°
2026-05-04 19:23 50.04452 8.56114 363 ft 2 kts 250°
2026-05-04 19:23 50.04446 8.56088 358 ft 4 kts 248°
2026-05-04 19:23 50.04420 8.56036 359 ft 10 kts 211°
2026-05-04 19:24 50.04330 8.56063 359 ft 14 kts 160°
2026-05-04 19:24 50.04256 8.56013 363 ft 13 kts 249°
2026-05-04 19:24 50.04218 8.55851 359 ft 19 kts 249°
2026-05-04 19:24 50.04165 8.55633 360 ft 24 kts 250°
2026-05-04 19:25 50.04105 8.55382 359 ft 25 kts 249°
2026-05-04 19:25 50.04045 8.55128 356 ft 25 kts 250°
2026-05-04 19:25 50.03982 8.54865 354 ft 27 kts 250°
2026-05-04 19:25 50.03915 8.54584 353 ft 28 kts 250°
2026-05-04 19:26 50.03829 8.54300 353 ft 30 kts 233°
2026-05-04 19:26 50.03747 8.54004 347 ft 30 kts 249°
2026-05-04 19:26 50.03676 8.53710 349 ft 29 kts 249°
2026-05-04 19:26 50.03603 8.53410 335 ft 30 kts 249°
2026-05-04 19:27 50.03529 8.53103 334 ft 31 kts 250°
2026-05-04 19:27 50.03450 8.52790 336 ft 30 kts 248°
2026-05-04 19:27 50.03390 8.52609 333 ft 17 kts 215°
2026-05-04 19:27 50.03312 8.52596 335 ft 0 kts 178°
2026-05-04 19:28 50.03307 8.52595 335 ft 1 kts 181°
2026-05-04 19:28 50.03300 8.52595 332 ft 1 kts 180°
2026-05-04 19:28 50.03299 8.52595 332 ft 0 kts 180°
2026-05-04 19:29 50.03243 8.52596 335 ft 34 kts 180°
2026-05-04 19:29 50.02750 8.52601 334 ft 104 kts 179°
2026-05-04 19:29 50.01835 8.52608 329 ft 156 kts 180°
2026-05-04 19:29 50.00638 8.52623 625 ft 177 kts 180°
2026-05-04 19:30 49.99401 8.52685 1292 ft 180 kts 178°
2026-05-04 19:30 49.98113 8.52786 1776 ft 196 kts 177°
2026-05-04 19:30 49.96679 8.52895 2107 ft 216 kts 178°
2026-05-04 19:30 49.95121 8.53003 2500 ft 235 kts 178°
2026-05-04 19:31 49.93472 8.53124 3308 ft 236 kts 177°
2026-05-04 19:31 49.91825 8.53262 4122 ft 243 kts 177°
2026-05-04 19:31 49.90063 8.53413 4652 ft 263 kts 177°
2026-05-04 19:31 49.88215 8.53540 5524 ft 266 kts 178°
2026-05-04 19:32 49.86375 8.53648 6556 ft 264 kts 179°
2026-05-04 19:32 49.84537 8.53755 7463 ft 266 kts 179°
2026-05-04 19:32 49.82677 8.53867 8336 ft 269 kts 179°
2026-05-04 19:32 49.80825 8.53980 9190 ft 272 kts 179°
2026-05-04 19:33 49.78926 8.54100 10041 ft 275 kts 179°
2026-05-04 19:33 49.77009 8.54003 10792 ft 278 kts 186°
2026-05-04 19:33 49.75072 8.53742 11564 ft 281 kts 187°
2026-05-04 19:33 49.73113 8.53481 12331 ft 284 kts 186°
2026-05-04 19:34 49.71124 8.53217 12836 ft 289 kts 186°
2026-05-04 19:34 49.69121 8.52955 12964 ft 289 kts 186°
2026-05-04 19:34 49.67118 8.52692 12990 ft 292 kts 187°
2026-05-04 19:34 49.64998 8.52407 12996 ft 318 kts 186°
2026-05-04 19:35 49.62756 8.52106 12997 ft 326 kts 186°
2026-05-04 19:35 49.60494 8.51804 12998 ft 327 kts 186°
2026-05-04 19:35 49.58222 8.51505 13001 ft 328 kts 186°
2026-05-04 19:35 49.55953 8.51209 13001 ft 328 kts 186°
2026-05-04 19:36 49.54446 8.51012 13004 ft 328 kts 186°
2026-05-04 19:36 49.52144 8.50711 13003 ft 328 kts 186°
2026-05-04 19:36 49.49903 8.50419 13002 ft 328 kts 186°
2026-05-04 19:36 49.47631 8.50123 13004 ft 328 kts 186°
2026-05-04 19:37 49.45357 8.49825 12999 ft 328 kts 186°
2026-05-04 19:37 49.43083 8.49525 12996 ft 328 kts 186°
2026-05-04 19:37 49.40800 8.49225 13002 ft 330 kts 186°
2026-05-04 19:37 49.38493 8.48922 13469 ft 335 kts 186°
2026-05-04 19:38 49.36161 8.48618 14203 ft 338 kts 185°
2026-05-04 19:38 49.33810 8.48317 14862 ft 340 kts 185°
2026-05-04 19:38 49.31445 8.48012 15518 ft 343 kts 186°
2026-05-04 19:38 49.29054 8.47701 16174 ft 346 kts 186°
2026-05-04 19:39 49.26643 8.47386 16825 ft 349 kts 186°
2026-05-04 19:39 49.24216 8.47068 17469 ft 352 kts 186°
2026-05-04 19:39 49.21764 8.46745 18098 ft 355 kts 186°
2026-05-04 19:39 49.19298 8.46422 18685 ft 357 kts 185°
2026-05-04 19:40 49.16812 8.46101 19254 ft 359 kts 186°
2026-05-04 19:40 49.14319 8.45780 19798 ft 362 kts 186°
2026-05-04 19:40 49.11802 8.45454 20358 ft 364 kts 186°
2026-05-04 19:40 49.09266 8.45127 20895 ft 367 kts 186°
2026-05-04 19:41 49.06717 8.44778 21419 ft 369 kts 189°
2026-05-04 19:41 49.04200 8.44017 21917 ft 370 kts 194°
2026-05-04 19:41 49.01677 8.43140 22441 ft 373 kts 194°
2026-05-04 19:41 48.99141 8.42250 22948 ft 375 kts 194°
2026-05-04 19:42 48.96583 8.41352 23422 ft 379 kts 194°
2026-05-04 19:42 48.94013 8.40452 23871 ft 381 kts 194°
2026-05-04 19:42 48.91420 8.39549 24283 ft 383 kts 194°
2026-05-04 19:42 48.88819 8.38647 24715 ft 384 kts 194°
2026-05-04 19:43 48.86208 8.37744 25150 ft 385 kts 194°
2026-05-04 19:43 48.83591 8.36838 25582 ft 386 kts 194°
2026-05-04 19:43 48.80963 8.35928 26008 ft 388 kts 194°
2026-05-04 19:43 48.78365 8.35030 26427 ft 389 kts 194°
2026-05-04 19:44 48.75689 8.34083 26829 ft 391 kts 194°
2026-05-04 19:44 48.73041 8.33117 27224 ft 392 kts 194°
2026-05-04 19:44 48.70420 8.32149 27615 ft 393 kts 194°
2026-05-04 19:44 48.67760 8.31167 28006 ft 395 kts 194°
2026-05-04 19:45 48.65085 8.30181 28406 ft 396 kts 194°
2026-05-04 19:45 48.62402 8.29194 28811 ft 397 kts 194°
2026-05-04 19:45 48.59710 8.28208 29205 ft 399 kts 194°
2026-05-04 19:45 48.57011 8.27227 29593 ft 400 kts 194°
2026-05-04 19:46 48.54298 8.26244 29960 ft 402 kts 194°
2026-05-04 19:46 48.51575 8.25285 30281 ft 403 kts 191°
2026-05-04 19:46 48.48775 8.24826 30564 ft 406 kts 182°
2026-05-04 19:46 48.45941 8.25108 30835 ft 411 kts 174°
2026-05-04 19:47 48.43112 8.25805 31088 ft 413 kts 173°
2026-05-04 19:47 48.40273 8.26498 31352 ft 415 kts 174°
2026-05-04 19:47 48.37419 8.27190 31688 ft 415 kts 174°
2026-05-04 19:47 48.34579 8.27878 32038 ft 414 kts 174°
2026-05-04 19:48 48.31734 8.28567 32390 ft 413 kts 174°
2026-05-04 19:48 48.28894 8.29254 32745 ft 413 kts 174°
2026-05-04 19:48 48.26063 8.29940 33078 ft 413 kts 174°
2026-05-04 19:48 48.23226 8.30628 33420 ft 412 kts 174°
2026-05-04 19:49 48.20396 8.31314 33766 ft 412 kts 174°
2026-05-04 19:49 48.17564 8.31997 34100 ft 412 kts 174°
2026-05-04 19:49 48.14737 8.32676 34369 ft 412 kts 174°
2026-05-04 19:49 48.11909 8.33358 34601 ft 413 kts 174°
2026-05-04 19:50 48.09065 8.34047 34815 ft 414 kts 174°
2026-05-04 19:50 48.06218 8.34738 35041 ft 415 kts 174°
2026-05-04 19:50 48.03366 8.35432 35265 ft 416 kts 174°
2026-05-04 19:50 48.00509 8.36127 35484 ft 416 kts 174°
2026-05-04 19:51 47.97650 8.36821 35710 ft 417 kts 174°
2026-05-04 19:51 47.94783 8.37515 35922 ft 417 kts 174°
2026-05-04 19:51 47.91912 8.38212 36141 ft 418 kts 174°
2026-05-04 19:51 47.89044 8.38908 36326 ft 419 kts 174°
2026-05-04 19:52 47.86163 8.39601 36518 ft 420 kts 174°
2026-05-04 19:52 47.83277 8.40291 36721 ft 420 kts 174°
2026-05-04 19:52 47.80385 8.40978 36924 ft 421 kts 174°
2026-05-04 19:53 47.74614 8.42349 37013 ft 419 kts 174°
2026-05-04 19:53 47.68863 8.43718 37006 ft 419 kts 174°
2026-05-04 19:54 47.63079 8.44760 37005 ft 418 kts 178°
2026-05-04 19:54 47.57283 8.45507 37004 ft 418 kts 178°
2026-05-04 19:55 47.51494 8.46269 37002 ft 418 kts 178°
2026-05-04 19:55 47.45696 8.47107 36994 ft 418 kts 177°
2026-05-04 19:56 47.39905 8.47979 36999 ft 419 kts 177°
2026-05-04 19:56 47.34103 8.48837 37027 ft 419 kts 178°
2026-05-04 19:57 47.28309 8.49680 37028 ft 419 kts 178°
2026-05-04 19:57 47.22507 8.50525 37023 ft 419 kts 178°
2026-05-04 19:58 47.16704 8.51369 37022 ft 419 kts 178°
2026-05-04 19:58 47.10898 8.52208 37021 ft 419 kts 178°
2026-05-04 19:59 47.05095 8.53046 37007 ft 419 kts 178°
2026-05-04 19:59 46.99294 8.53889 37010 ft 420 kts 178°
2026-05-04 20:00 46.93485 8.54725 37028 ft 420 kts 178°
2026-05-04 20:00 46.87676 8.55563 37036 ft 419 kts 178°
2026-05-04 20:01 46.81866 8.56391 37036 ft 420 kts 178°
2026-05-04 20:01 46.76050 8.57213 37034 ft 420 kts 178°
2026-05-04 20:02 46.70239 8.58045 37066 ft 420 kts 177°
2026-05-04 20:02 46.64461 8.58881 37084 ft 419 kts 178°
2026-05-04 20:03 46.58662 8.59705 37100 ft 419 kts 178°
2026-05-04 20:03 46.52855 8.60523 37103 ft 419 kts 178°
2026-05-04 20:04 46.47046 8.61345 37113 ft 419 kts 178°
2026-05-04 20:04 46.41243 8.62171 37115 ft 420 kts 178°
2026-05-04 20:05 46.35429 8.62998 37114 ft 420 kts 177°
2026-05-04 20:05 46.29631 8.64166 37115 ft 421 kts 174°
2026-05-04 20:06 46.23857 8.65671 37091 ft 421 kts 173°
2026-05-04 20:06 46.18090 8.67167 37093 ft 421 kts 174°
2026-05-04 20:07 46.12312 8.68579 37098 ft 421 kts 174°
2026-05-04 20:07 46.06533 8.69939 37102 ft 420 kts 174°
2026-05-04 20:08 46.00770 8.71324 37094 ft 420 kts 174°
2026-05-04 20:08 45.95007 8.72711 37062 ft 419 kts 174°
2026-05-04 20:09 45.89243 8.74082 37070 ft 420 kts 174°
2026-05-04 20:09 45.83480 8.75456 37074 ft 421 kts 174°
2026-05-04 20:10 45.77700 8.76831 37077 ft 421 kts 174°
2026-05-04 20:10 45.71923 8.78199 37091 ft 421 kts 174°
2026-05-04 20:11 45.66181 8.79561 37093 ft 421 kts 174°
2026-05-04 20:11 45.60401 8.80932 37089 ft 421 kts 174°
2026-05-04 20:12 45.54616 8.82298 37089 ft 421 kts 174°
2026-05-04 20:12 45.48835 8.83662 37090 ft 421 kts 174°
2026-05-04 20:13 45.43066 8.85018 37078 ft 420 kts 174°
2026-05-04 20:13 45.37291 8.86370 37080 ft 420 kts 175°
2026-05-04 20:14 45.31518 8.87714 37088 ft 420 kts 175°
2026-05-04 20:14 45.25754 8.89063 37088 ft 420 kts 175°
2026-05-04 20:15 45.19982 8.90408 37085 ft 420 kts 175°
2026-05-04 20:15 45.14209 8.91751 37095 ft 420 kts 175°
2026-05-04 20:16 45.08437 8.93093 37101 ft 421 kts 175°
2026-05-04 20:16 45.02660 8.94434 37098 ft 421 kts 175°
2026-05-04 20:17 44.96881 8.95782 37087 ft 421 kts 175°
2026-05-04 20:17 44.91112 8.97108 37093 ft 420 kts 176°
2026-05-04 20:18 44.85331 8.98435 37103 ft 421 kts 175°
2026-05-04 20:18 44.79595 8.99752 37103 ft 420 kts 176°
2026-05-04 20:19 44.73822 9.01077 37108 ft 420 kts 176°
2026-05-04 20:19 44.68054 9.02396 37112 ft 420 kts 176°
2026-05-04 20:20 44.62280 9.03709 37100 ft 420 kts 176°
2026-05-04 20:20 44.59383 9.04366 36808 ft 423 kts 176°
2026-05-04 20:20 44.56479 9.05025 36316 ft 421 kts 176°
2026-05-04 20:20 44.53591 9.05684 35831 ft 419 kts 176°
2026-05-04 20:21 44.50726 9.06338 35359 ft 416 kts 176°
2026-05-04 20:21 44.47877 9.06989 34888 ft 413 kts 176°
2026-05-04 20:21 44.42255 9.08072 33958 ft 399 kts 185°
2026-05-04 20:22 44.39514 9.07884 33442 ft 391 kts 191°
2026-05-04 20:22 44.36813 9.07546 32931 ft 388 kts 190°
2026-05-04 20:22 44.35001 9.07323 32587 ft 386 kts 190°
2026-05-04 20:22 44.32334 9.06997 32097 ft 383 kts 189°
2026-05-04 20:23 44.29724 9.06682 31618 ft 380 kts 189°
2026-05-04 20:23 44.27095 9.06369 31132 ft 378 kts 189°
2026-05-04 20:23 44.24484 9.06057 30650 ft 375 kts 189°
2026-05-04 20:23 44.21891 9.05743 30190 ft 373 kts 189°
2026-05-04 20:24 44.19313 9.05431 29660 ft 371 kts 188°
2026-05-04 20:24 44.16751 9.05124 29124 ft 368 kts 188°
2026-05-04 20:24 44.14207 9.04818 28605 ft 366 kts 188°
2026-05-04 20:24 44.11686 9.04514 28096 ft 363 kts 188°
2026-05-04 20:25 44.09177 9.04212 27595 ft 361 kts 188°
2026-05-04 20:25 44.06684 9.03913 27102 ft 358 kts 188°
2026-05-04 20:25 44.04209 9.03620 26610 ft 356 kts 188°
2026-05-04 20:25 44.01748 9.03329 26128 ft 354 kts 187°
2026-05-04 20:26 43.99302 9.03037 25662 ft 352 kts 187°
2026-05-04 20:26 43.96871 9.02746 25203 ft 350 kts 187°
2026-05-04 20:26 43.94456 9.02463 24747 ft 348 kts 187°
2026-05-04 20:26 43.92044 9.02499 24301 ft 349 kts 171°
2026-05-04 20:27 43.89743 9.03577 23863 ft 350 kts 159°
2026-05-04 20:27 43.87517 9.04922 23390 ft 348 kts 159°
2026-05-04 20:27 43.85304 9.06275 22868 ft 347 kts 159°
2026-05-04 20:27 43.83104 9.07614 22366 ft 346 kts 159°
2026-05-04 20:28 43.80907 9.08955 21863 ft 345 kts 159°
2026-05-04 20:28 43.78717 9.10299 21370 ft 344 kts 159°
2026-05-04 20:28 43.76532 9.11646 20890 ft 343 kts 159°
2026-05-04 20:28 43.74353 9.12994 20410 ft 343 kts 159°
2026-05-04 20:29 43.72179 9.14343 19944 ft 342 kts 159°
2026-05-04 20:29 43.70011 9.15694 19485 ft 341 kts 159°
2026-05-04 20:29 43.67847 9.17046 19031 ft 341 kts 159°
2026-05-04 20:29 43.65688 9.18398 18584 ft 340 kts 159°
2026-05-04 20:30 43.63537 9.19748 18116 ft 340 kts 159°
2026-05-04 20:30 43.61411 9.21082 17610 ft 339 kts 159°
2026-05-04 20:30 43.59261 9.22427 17112 ft 339 kts 159°
2026-05-04 20:30 43.57117 9.23765 16625 ft 339 kts 159°
2026-05-04 20:31 43.54971 9.25100 16192 ft 337 kts 159°
2026-05-04 20:31 43.52838 9.26419 15786 ft 335 kts 159°
2026-05-04 20:31 43.50717 9.27727 15399 ft 333 kts 159°
2026-05-04 20:31 43.48612 9.29025 15007 ft 331 kts 159°
2026-05-04 20:32 43.46525 9.30315 14622 ft 328 kts 159°
2026-05-04 20:32 43.44449 9.31609 14234 ft 326 kts 159°
2026-05-04 20:32 43.42389 9.32889 13935 ft 322 kts 159°
2026-05-04 20:32 43.40363 9.34147 13655 ft 317 kts 159°
2026-05-04 20:33 43.38370 9.35384 13362 ft 312 kts 159°
2026-05-04 20:33 43.36409 9.36600 13070 ft 307 kts 159°
2026-05-04 20:33 43.34483 9.37795 12784 ft 302 kts 159°
2026-05-04 20:33 43.32573 9.38947 12503 ft 296 kts 163°
2026-05-04 20:34 43.30612 9.39728 12192 ft 292 kts 168°
2026-05-04 20:34 43.28640 9.40405 11796 ft 292 kts 168°
2026-05-04 20:34 43.26664 9.41055 11400 ft 292 kts 168°
2026-05-04 20:34 43.24686 9.41691 11007 ft 292 kts 169°
2026-05-04 20:35 43.22706 9.42281 10611 ft 291 kts 172°
2026-05-04 20:35 43.20708 9.42688 10225 ft 290 kts 173°
2026-05-04 20:35 43.18710 9.43058 9843 ft 289 kts 173°
2026-05-04 20:35 43.16720 9.43413 9421 ft 288 kts 174°
2026-05-04 20:36 43.14734 9.43757 9011 ft 287 kts 173°
2026-05-04 20:36 43.12755 9.44089 8601 ft 286 kts 174°
2026-05-04 20:36 43.10785 9.44408 8197 ft 284 kts 173°
2026-05-04 20:36 43.08826 9.44714 7797 ft 283 kts 173°
2026-05-04 20:37 43.06877 9.45010 7401 ft 281 kts 173°
2026-05-04 20:37 43.04943 9.45290 7013 ft 279 kts 173°
2026-05-04 20:37 43.03013 9.45512 6631 ft 277 kts 178°
2026-05-04 20:37 43.01094 9.45585 6233 ft 275 kts 178°
2026-05-04 20:38 42.99198 9.45629 5933 ft 269 kts 179°
2026-05-04 20:38 42.97358 9.45668 5703 ft 260 kts 179°
2026-05-04 20:38 42.95578 9.45702 5502 ft 251 kts 179°
2026-05-04 20:38 42.93864 9.45733 5305 ft 243 kts 178°
2026-05-04 20:39 42.92204 9.45759 5099 ft 235 kts 179°
2026-05-04 20:39 42.90584 9.45779 4890 ft 231 kts 179°
2026-05-04 20:39 42.89002 9.45792 4667 ft 225 kts 179°
2026-05-04 20:39 42.87464 9.45805 4433 ft 216 kts 179°
2026-05-04 20:40 42.86000 9.45817 4209 ft 205 kts 179°
2026-05-04 20:40 42.84600 9.45825 3985 ft 198 kts 179°
2026-05-04 20:40 42.83246 9.45835 3760 ft 191 kts 179°
2026-05-04 20:40 42.81941 9.45855 3632 ft 186 kts 179°
2026-05-04 20:41 42.80652 9.45873 3492 ft 185 kts 179°
2026-05-04 20:41 42.79358 9.45890 3346 ft 188 kts 179°
2026-05-04 20:41 42.78056 9.45915 3191 ft 187 kts 179°
2026-05-04 20:41 42.76753 9.45942 3042 ft 187 kts 178°
2026-05-04 20:42 42.75467 9.45969 2891 ft 188 kts 179°
2026-05-04 20:42 42.74166 9.45872 2743 ft 187 kts 188°
2026-05-04 20:42 42.72916 9.45512 2622 ft 179 kts 190°
2026-05-04 20:42 42.71726 9.45156 2525 ft 171 kts 191°
2026-05-04 20:43 42.70639 9.44791 2504 ft 150 kts 191°
2026-05-04 20:43 42.69627 9.44538 2408 ft 147 kts 186°
2026-05-04 20:43 42.68622 9.44370 2355 ft 144 kts 184°
2026-05-04 20:43 42.67624 9.44269 2258 ft 143 kts 182°
2026-05-04 20:44 42.66623 9.44221 2163 ft 145 kts 177°
2026-05-04 20:44 42.65613 9.44238 2069 ft 146 kts 180°
2026-05-04 20:44 42.64609 9.44411 1929 ft 147 kts 165°
2026-05-04 20:44 42.63623 9.44755 1774 ft 142 kts 163°
2026-05-04 20:45 42.62710 9.45188 1554 ft 139 kts 159°
2026-05-04 20:45 42.61778 9.45628 1324 ft 142 kts 161°
2026-05-04 20:45 42.60840 9.46017 1131 ft 141 kts 162°
2026-05-04 20:45 42.59907 9.46438 912 ft 138 kts 163°
2026-05-04 20:46 42.59016 9.46811 674 ft 132 kts 164°
2026-05-04 20:46 42.58130 9.47160 399 ft 133 kts 162°
2026-05-04 20:46 42.57240 9.47544 223 ft 136 kts 163°
2026-05-04 20:46 42.56340 9.47926 86 ft 135 kts 163°
2026-05-04 20:47 42.55479 9.48289 109 ft 129 kts 162°
2026-05-04 20:47 42.54564 9.48700 693 ft 145 kts 164°
2026-05-04 20:47 42.53576 9.49130 1339 ft 156 kts 166°
2026-05-04 20:47 42.52440 9.49576 1560 ft 183 kts 167°
2026-05-04 20:48 42.51152 9.50089 1963 ft 202 kts 166°
2026-05-04 20:48 42.49815 9.50767 2363 ft 208 kts 147°
2026-05-04 20:48 42.49025 9.52374 2478 ft 214 kts 106°
2026-05-04 20:48 42.49253 9.54392 2569 ft 227 kts 65°
2026-05-04 20:49 42.50407 9.55868 2561 ft 234 kts 31°
2026-05-04 20:49 42.51906 9.56758 2569 ft 235 kts 25°
2026-05-04 20:49 42.53415 9.57606 2562 ft 234 kts 26°
2026-05-04 20:49 42.54912 9.58455 2543 ft 233 kts 24°
2026-05-04 20:50 42.56459 9.58973 2535 ft 225 kts
2026-05-04 20:50 42.57978 9.59000 2549 ft 210 kts 360°
2026-05-04 20:50 42.59391 9.58889 2340 ft 206 kts 350°
2026-05-04 20:50 42.60794 9.58444 2021 ft 203 kts 344°
2026-05-04 20:51 42.62136 9.57958 1725 ft 201 kts 344°
2026-05-04 20:51 42.63468 9.57439 1538 ft 195 kts 338°
2026-05-04 20:51 42.64487 9.56366 1531 ft 180 kts 297°
2026-05-04 20:51 42.65012 9.54864 1528 ft 174 kts 286°
2026-05-04 20:52 42.65392 9.53326 1532 ft 170 kts 277°
2026-05-04 20:52 42.65377 9.51744 1549 ft 168 kts 257°
2026-05-04 20:52 42.65192 9.50190 1542 ft 166 kts 253°
2026-05-04 20:52 42.64987 9.48659 1559 ft 158 kts 250°
2026-05-04 20:53 42.64468 9.47464 1560 ft 145 kts 219°
2026-05-04 20:53 42.63622 9.46806 1456 ft 137 kts 201°
2026-05-04 20:53 42.62750 9.46337 1353 ft 133 kts 193°
2026-05-04 20:53 42.61827 9.46146 1232 ft 144 kts 182°
2026-05-04 20:54 42.60812 9.46209 1082 ft 148 kts 172°
2026-05-04 20:54 42.59844 9.46493 855 ft 134 kts 164°
2026-05-04 20:54 42.58961 9.46852 641 ft 133 kts 163°
2026-05-04 20:54 42.58078 9.47191 390 ft 129 kts 161°
2026-05-04 20:55 42.57237 9.47543 183 ft 126 kts 160°
2026-05-04 20:55 42.56384 9.47907 94 ft 129 kts 161°
2026-05-04 20:55 42.55569 9.48250 35 ft 109 kts 162°
2026-05-04 20:55 42.55067 9.48457 37 ft 48 kts 162°
2026-05-04 20:56 42.54748 9.48590 32 ft 44 kts 162°
2026-05-04 20:56 42.54549 9.48674 33 ft 17 kts 164°
2026-05-04 20:56 42.54434 9.48723 34 ft 17 kts 162°
2026-05-04 20:56 42.54314 9.48774 32 ft 19 kts 164°
2026-05-04 20:57 42.54226 9.48798 35 ft 12 kts 193°
2026-05-04 20:57 42.54150 9.48738 35 ft 14 kts 221°
2026-05-04 20:57 42.54128 9.48626 35 ft 12 kts 274°
2026-05-04 20:57 42.54163 9.48530 35 ft 11 kts 317°
2026-05-04 20:58 42.54235 9.48485 33 ft 14 kts 341°
2026-05-04 20:58 42.54340 9.48440 35 ft 16 kts 343°
2026-05-04 20:58 42.54442 9.48406 35 ft 15 kts 354°
2026-05-04 20:58 42.54540 9.48397 33 ft 14 kts 350°
2026-05-04 20:59 42.54627 9.48363 35 ft 13 kts 343°
2026-05-04 20:59 42.54654 9.48350 34 ft 2 kts 325°
2026-05-04 20:59 42.54662 9.48314 35 ft 4 kts 284°
2026-05-04 20:59 42.54667 9.48282 35 ft 3 kts 284°
2026-05-04 21:00 42.54672 9.48259 35 ft 2 kts 283°
2026-05-04 21:00 42.54674 9.48243 35 ft 1 kts 283°
2026-05-04 21:00 42.54675 9.48236 35 ft 1 kts 283°
2026-05-04 21:00 42.54676 9.48232 35 ft 0 kts 283°
2026-05-04 21:09 42.54676 9.48233 35 ft 1 kts 283°
2026-05-04 21:10 42.54671 9.48264 35 ft 4 kts 283°
2026-05-04 21:10 42.54665 9.48300 35 ft 4 kts 283°
2026-05-04 21:10 42.54659 9.48336 35 ft 4 kts 282°
2026-05-04 21:10 42.54655 9.48362 35 ft 1 kts 282°
2026-05-04 21:11 42.54654 9.48366 35 ft 0 kts 282°
2026-05-04 21:13 42.54656 9.48358 35 ft 2 kts 293°
2026-05-04 21:13 42.54672 9.48343 34 ft 4 kts 336°
2026-05-04 21:13 42.54716 9.48326 34 ft 9 kts 343°
2026-05-04 21:14 42.54780 9.48299 35 ft 9 kts 342°
2026-05-04 21:14 42.54836 9.48276 35 ft 9 kts 343°
2026-05-04 21:14 42.54909 9.48245 35 ft 13 kts 342°
2026-05-04 21:14 42.55015 9.48225 35 ft 18 kts 343°
2026-05-04 21:15 42.55141 9.48171 33 ft 19 kts 342°
2026-05-04 21:15 42.55272 9.48116 35 ft 20 kts 342°
2026-05-04 21:15 42.55398 9.48063 35 ft 18 kts 342°
2026-05-04 21:15 42.55511 9.48015 34 ft 17 kts 342°
2026-05-04 21:16 42.55634 9.47964 31 ft 20 kts 343°
2026-05-04 21:16 42.55774 9.47906 28 ft 23 kts 342°
2026-05-04 21:16 42.55891 9.47866 25 ft 15 kts
2026-05-04 21:16 42.55953 9.47959 26 ft 10 kts 73°
2026-05-04 21:17 42.55981 9.48047 24 ft 12 kts 40°
2026-05-04 21:17 42.56068 9.48037 24 ft 16 kts 342°
2026-05-04 21:17 42.56174 9.47992 24 ft 16 kts 342°
2026-05-04 21:17 42.56262 9.47920 22 ft 14 kts 310°
2026-05-04 21:18 42.56303 9.47888 22 ft 6 kts 26°
2026-05-04 21:18 42.56311 9.47936 22 ft 5 kts 114°
2026-05-04 21:18 42.56254 9.47960 22 ft 17 kts 163°
2026-05-04 21:18 42.55899 9.48109 29 ft 88 kts 162°
2026-05-04 21:19 42.55139 9.48428 37 ft 141 kts 162°
2026-05-04 21:19 42.54117 9.48856 417 ft 158 kts 166°
2026-05-04 21:19 42.53148 9.49547 1187 ft 162 kts 131°
2026-05-04 21:19 42.52828 9.51145 1520 ft 196 kts 85°
2026-05-04 21:20 42.53323 9.52967 1857 ft 220 kts 68°
2026-05-04 21:20 42.54083 9.54830 2358 ft 236 kts 63°
2026-05-04 21:20 42.54956 9.56859 2740 ft 261 kts 63°
2026-05-04 21:20 42.55871 9.59050 3467 ft 272 kts 63°
2026-05-04 21:21 42.56808 9.61287 4375 ft 276 kts 58°
2026-05-04 21:21 42.58181 9.63137 5240 ft 284 kts 32°
2026-05-04 21:21 42.59998 9.64287 5804 ft 291 kts 22°
2026-05-04 21:21 42.61879 9.65324 6449 ft 292 kts 22°
2026-05-04 21:22 42.63778 9.66348 7338 ft 294 kts 21°
2026-05-04 21:22 42.65690 9.67377 8198 ft 297 kts 21°
2026-05-04 21:22 42.67618 9.68420 9054 ft 301 kts 21°
2026-05-04 21:22 42.69577 9.69486 9877 ft 305 kts 21°
2026-05-04 21:23 42.71575 9.70578 10435 ft 319 kts 21°
2026-05-04 21:23 42.73706 9.71749 10717 ft 340 kts 21°
2026-05-04 21:23 42.75934 9.72978 11301 ft 349 kts 21°
2026-05-04 21:23 42.78194 9.74224 12029 ft 353 kts 21°
2026-05-04 21:24 42.80488 9.75488 12742 ft 358 kts 21°
2026-05-04 21:24 42.82811 9.76771 13450 ft 362 kts 21°
2026-05-04 21:24 42.85160 9.78071 14129 ft 366 kts 21°
2026-05-04 21:24 42.87536 9.79387 14742 ft 370 kts 21°
2026-05-04 21:25 42.89934 9.80720 15380 ft 374 kts 21°
2026-05-04 21:25 42.92353 9.82068 16005 ft 377 kts 21°
2026-05-04 21:25 42.94795 9.83428 16627 ft 381 kts 21°
2026-05-04 21:25 42.97261 9.84800 17248 ft 384 kts 21°
2026-05-04 21:26 42.99750 9.86183 17872 ft 388 kts 21°
2026-05-04 21:26 43.02258 9.87574 18465 ft 392 kts 21°
2026-05-04 21:26 43.04798 9.88983 18977 ft 396 kts 21°
2026-05-04 21:26 43.07360 9.90409 19487 ft 399 kts 21°
2026-05-04 21:27 43.09943 9.91851 19998 ft 403 kts 21°
2026-05-04 21:27 43.12550 9.93311 20511 ft 406 kts 21°
2026-05-04 21:27 43.15180 9.94782 21007 ft 410 kts 21°
2026-05-04 21:27 43.17829 9.96262 21491 ft 414 kts 21°
2026-05-04 21:28 43.20506 9.97761 21973 ft 417 kts 21°
2026-05-04 21:28 43.23205 9.99273 22442 ft 421 kts 21°
2026-05-04 21:28 43.25928 10.00801 22904 ft 425 kts 21°
2026-05-04 21:28 43.28675 10.02344 23365 ft 428 kts 21°
2026-05-04 21:29 43.31438 10.03900 23784 ft 432 kts 21°
2026-05-04 21:29 43.34229 10.05475 24168 ft 435 kts 21°
2026-05-04 21:29 43.37036 10.07058 24555 ft 437 kts 21°
2026-05-04 21:29 43.39859 10.08650 24963 ft 439 kts 20°
2026-05-04 21:30 43.42691 10.10244 25388 ft 441 kts 20°
2026-05-04 21:30 43.45536 10.11847 25777 ft 443 kts 20°
2026-05-04 21:30 43.48353 10.13438 26172 ft 445 kts 20°
2026-05-04 21:30 43.51220 10.15063 26553 ft 447 kts 20°
2026-05-04 21:31 43.57002 10.18340 27297 ft 451 kts 20°
2026-05-04 21:31 43.59912 10.19992 27683 ft 453 kts 20°
2026-05-04 21:31 43.62833 10.21651 28074 ft 454 kts 19°
2026-05-04 21:32 43.65759 10.23313 28464 ft 456 kts 19°
2026-05-04 21:32 43.68697 10.24982 28830 ft 457 kts 19°
2026-05-04 21:32 43.71647 10.26661 29180 ft 460 kts 19°
2026-05-04 21:32 43.74610 10.28354 29544 ft 462 kts 19°
2026-05-04 21:33 43.77579 10.30053 29912 ft 464 kts 19°
2026-05-04 21:33 43.80569 10.31764 30222 ft 466 kts 19°
2026-05-04 21:33 43.83571 10.33484 30483 ft 468 kts 19°
2026-05-04 21:33 43.86589 10.35213 30744 ft 470 kts 18°
2026-05-04 21:34 43.89622 10.36954 30998 ft 473 kts 18°
2026-05-04 21:34 43.92666 10.38709 31261 ft 475 kts 18°
2026-05-04 21:34 43.95726 10.40474 31489 ft 477 kts 18°
2026-05-04 21:34 43.98792 10.42242 31842 ft 477 kts 18°
2026-05-04 21:35 44.01849 10.44004 32206 ft 476 kts 18°
2026-05-04 21:35 44.04911 10.45774 32521 ft 476 kts 18°
2026-05-04 21:35 44.07974 10.47550 32851 ft 477 kts 18°
2026-05-04 21:35 44.11036 10.49327 33199 ft 477 kts 18°
2026-05-04 21:36 44.14097 10.51103 33541 ft 476 kts 18°
2026-05-04 21:36 44.17154 10.52874 33924 ft 475 kts 18°
2026-05-04 21:36 44.20198 10.54636 34242 ft 475 kts 18°
2026-05-04 21:36 44.23248 10.56400 34546 ft 474 kts 18°
2026-05-04 21:37 44.26290 10.58164 34885 ft 472 kts 18°
2026-05-04 21:37 44.29316 10.59927 35131 ft 471 kts 18°
2026-05-04 21:37 44.32324 10.61687 35194 ft 465 kts 18°
2026-05-04 21:38 44.38239 10.65150 35185 ft 459 kts 18°
2026-05-04 21:38 44.44124 10.68598 35185 ft 458 kts 18°
2026-05-04 21:39 44.50008 10.72040 35183 ft 458 kts 18°
2026-05-04 21:39 44.55870 10.75485 35174 ft 457 kts 18°
2026-05-04 21:40 44.61732 10.78939 35158 ft 457 kts 18°
2026-05-04 21:40 44.67634 10.82167 35144 ft 451 kts
2026-05-04 21:41 44.73701 10.83809 35136 ft 446 kts
2026-05-04 21:41 44.79817 10.85307 35122 ft 446 kts
2026-05-04 21:42 44.85968 10.86828 35123 ft 446 kts
2026-05-04 21:42 44.92033 10.88342 35124 ft 445 kts
2026-05-04 21:43 44.98135 10.89858 35109 ft 445 kts
2026-05-04 21:43 45.04222 10.91374 35086 ft 444 kts
2026-05-04 21:44 45.10302 10.92895 35105 ft 444 kts
2026-05-04 21:44 45.16377 10.94421 35104 ft 443 kts
2026-05-04 21:45 45.22442 10.95952 35088 ft 442 kts
2026-05-04 21:45 45.28494 10.97483 35092 ft 442 kts
2026-05-04 21:46 45.34546 10.99012 35064 ft 441 kts
2026-05-04 21:46 45.40594 11.00532 35055 ft 441 kts
2026-05-04 21:47 45.46596 11.02047 35062 ft 441 kts
2026-05-04 21:47 45.52636 11.03577 35054 ft 441 kts
2026-05-04 21:48 45.58687 11.05118 35054 ft 442 kts
2026-05-04 21:48 45.64738 11.06662 35085 ft 442 kts